Regional Weather Roundup
Issued by NWS Grand Forks, ND

Home | Current Version | Previous Version | Text Only | Print | Product List | Glossary Off
Versions: 1 2 3 4 5 6 7 8 9 10 11 12 13 14 15 16 17 18 19 20 21 22 23 24 25 26 27 28 29 30 31 32 33 34 35 36 37 38 39 40 41 42 43 44 45 46 47 48 49 50

000
ASUS43 KFGF 051931
RWRFGF
PRAIRIE TO PINES  WEATHER ROUNDUP
NATIONAL WEATHER SERVICE EASTERN NORTH DAKOTA/GRAND FORKS ND
200 PM CDT SUN JUL 05 2015

 **SATELLITE DATA USED TO AUGMENT SKY COVER AT AUTOMATED STATIONS**
 *****  WEATHER ACROSS EASTERN NORTH DAKOTA  *****

CITY           SKY/WX    TMP DP  RH WIND       PRES   REMARKS
GRAND FORKS    LGT RAIN  68  66  94 W6        29.75R
GRAND FRKS AFB CLOUDY    68  66  94 N7        29.76S
GRAND FRKS NWS   N/A     66 N/A N/A W15         N/A
DEVILS LAKE    PTSUNNY   72  63  73 NE10      29.81R
FARGO          CLOUDY    81  68  64 W7        29.76S
WAHPETON ARPT  CLOUDY    81  66  61 SW5       29.77R
$$

 ***** WEATHER ACROSS CENTRAL AND WESTERN NORTH DAKOTA  *****

CITY           SKY/WX    TMP DP  RH WIND       PRES   REMARKS
BISMARCK       MOSUNNY   78  64  61 N14       29.84R
MINOT          PTSUNNY   74  61  63 NW16G26   29.88R HAZE
JAMESTOWN      PTSUNNY   72  65  78 NW5       29.78S
MINOT AFB      SUNNY     76  68  76 N17       29.87R
GARRISON         N/A     75  60  59 N12G18    29.89R
WILLISTON      MOSUNNY   76  52  43 N16G24    29.97R HAZE
DICKINSON      CLOUDY    70  58  65 N15       29.93R
HETTINGER      CLOUDY    73  62  68 N18G26    29.92R
$$

 *****  OTHER AIRPORT OBSERVATIONS IN OUR AREA  *****

CITY           SKY/WX    TMP DP  RH WIND       PRES   REMARKS
WALHALLA       FAIR      68  68 100 MISG      29.81R
GRAFTON AIRPOR MOCLDY    68  68 100 N7        29.77R
VALLEY CITY AR FAIR      75  72  88 S3        29.76S
CANDO          MOCLDY    73  64  73 N16       29.85R HAZE
CAVALIER APRT  CLOUDY    68  66  94 N7        29.79R
GWINNER        FAIR      81  72  74 W6        29.76F
ROLLA          FAIR      68  63  83 N14       29.87S HAZE
 ***** THE ABOVE OBSERVATIONS ARE NON NWS ARE NOT QUALITY
       CONTROLLED AND MAY MIS-REPORT RAIN FOR SNOW...
$$

  *****  WEATHER ACROSS NORTHERN MINNESOTA  *****

CITY           SKY/WX    TMP DP  RH WIND       PRES   REMARKS
FLAG ISLAND    HVY RAIN  66  66 100 S3        29.76F
WARROAD        RAIN      66  63  88 CALM      29.79S
ROSEAU         RAIN      66  61  82 S5        29.77F
HALLOCK        CLOUDY    70  66  88 CALM      29.75S
THF RVR FALLS  CLOUDY    66  64  94 NE6       29.74F
BAUDETTE       LGT RAIN  70  67  90 S10       29.77R FOG
WASKISH        CLOUDY    73  70  88 SW8       29.79S
CROOKSTON      CLOUDY    66  66 100 SE12      29.74F
$$
  *****  WEATHER ACROSS CENTRAL AND WEST MINNESOTA  *****

CITY           SKY/WX    TMP DP  RH WIND       PRES   REMARKS
FOSSTON        CLOUDY    73  66  78 CALM      29.78F
BEMIDJI        CLOUDY    78  68  70 W15       29.80F
PARK RAPIDS    CLOUDY    85  65  51 W9        29.81S
ELBOW LAKE     FAIR      82  69  63 S14       29.78F
WADENA         PTSUNNY   84  64  51 S10       29.80F
DETROIT LAKES  CLOUDY    82  64  54 SW8       29.81S
MOORHEAD       CLOUDY    79  72  78 NW6       29.77S
FERGUS FALLS   CLOUDY    82  68  61 S9        29.77R
MORRIS MN      PTSUNNY   88  68  51 S13       29.78F HX  91
STAPLES        PTSUNNY   84  64  51 S9        29.81F
$$
  *****  WEATHER ELSEWHERE ACROSS MINNESOTA  *****

CITY           SKY/WX    TMP DP  RH WIND       PRES   REMARKS
DULUTH         PTSUNNY   82  65  56 S18       29.86F
INTRNTL FALLS  CLOUDY    78  68  71 VRB6      29.76F
ELY            PTSUNNY   81  64  57 SW10      29.84F
CLOQUET        PTSUNNY   81  64  57 S12G17    29.86F
WHEATON        PTSUNNY   86  66  51 SW10G20   29.77S
BRAINERD       PTSUNNY   85  66  53 S15G21    29.84S
HIBBING        PTSUNNY   83  66  56 S12       29.82F
ALEXANDRIA     PTSUNNY   83  65  54 S10       29.83F
SAINT CLOUD    MOSUNNY   84  68  58 S15       29.84F
MINNEAPOLIS    PTSUNNY   85  67  54 S13G21    29.89R
$$

  *****  WEATHER ACROSS SOUTH DAKOTA  *****

CITY           SKY/WX    TMP DP  RH WIND       PRES   REMARKS
SIOUX FALLS    MOSUNNY   88  66  48 S13       29.80R HX  90
BROOKINGS      SUNNY     86  68  54 SW15      29.82F
WATERTOWN      SUNNY     88  69  53 SW18      29.80R HX  92
HURON          SUNNY     87  72  60 SW7       29.75F HX  93
SISSETON         N/A     87  69  54 W14       29.75F HX  91
ABERDEEN       PTSUNNY   86  70  58 NW7       29.77S HX  90
MITCHELL       SUNNY     90  69  50 S12       29.77R HX  94
PIERRE         PTSUNNY   85  70  60 E7        29.75F
MOBRIDGE       PTSUNNY   82  68  62 E13       29.74F
RAPID CITY     CLOUDY    77  64  64 N17       29.90R
$$

  *****  SOME WEATHER IN NEARBY STATES *****

CITY           SKY/WX    TMP DP  RH WIND       PRES   REMARKS
GLASGOW MT     MOSUNNY   71  45  39 N20       30.06R
GREAT FALLS MT LGT RAIN  51  50  96 N10       30.17S
CHEYENNE WY    TSTM      69  57  65 E12       30.04R
SCOTTSBLUFF NE PTSUNNY   92  55  28 NW10      29.85F HX  90
OMAHA NE       CLOUDY    84  71  65 S17G29    29.86F
DES MOINES IA  CLOUDY    86  70  58 SE15      29.93F HX  90
DAVENPORT IA   SUNNY     82  66  58 S12G17    30.03F
CHICAGO IL     MOSUNNY   82  59  45 CALM      30.05F
EAU CLAIRE WI  PTSUNNY   82  63  52 S14       29.93F
LA CROSSE WI   PTSUNNY   83  63  50 S16       29.95F
$$

  *****  SOME NATIONAL WEATHER *****

CITY           SKY/WX    TMP DP  RH WIND       PRES   REMARKS
LA GUARDIA NY  PTSUNNY   83  58  42 NW7       30.10F
RALEIGH NC     PTSUNNY   82  73  74 E5        30.09F
ATLANTA GA     PTSUNNY   81  65  58 W9G16     30.14S
NEW ORLEANS LA PTSUNNY   91  72  53 SW7       30.09F HX  98
OKLAHOMA CITY  MOSUNNY   91  74  57 S14       29.96F HX 100
ALBUQUERQUE NM MOSUNNY   84  53  34 VRB6      30.12F
SALT LAKE CITY MOSUNNY   79  61  53 VRB6      30.04F
LOS ANGELES CA CLOUDY    67  60  78 W9        30.01S
BOISE ID       CLOUDY    83  51  33 N5        29.93R
SEATTLE WA     PTSUNNY   82  51  34 N6        29.86S
$$

*** WEATHER ACROSS MANITOBA...SASKATCHEWAN AND ONTARIO ***
                ***ONTARIO***

CITY           SKY/WX    TMP DP  RH WIND       PRES   REMARKS
GERALDTON      PTSUNNY   75  64  69 S13G18    29.85F HAZE
THUNDER BAY    CLOUDY    68  59  73 NE12      29.87S
SIOUX LOOKOUT  LGT RAIN  68  66  94 SW5       29.78F
TORONTO        PTSUNNY   79  61  53 SE12      30.09F
BIG TROUT LK   SUNNY     70  59  68 W8        29.68R HAZE
PICKLE LAKE    CLOUDY    72  61  68 S6        29.76F
DRYDEN         CLOUDY    72  63  73 S5        29.77F
KENORA         TSTM      68  66  94 W5        29.78F FOG
$$
                *** MANITOBA***

CITY           SKY/WX    TMP DP  RH WIND       PRES   REMARKS
BRANDON        CLOUDY    70  57  64 NW7       29.86R SMOKE
DAUPHIN        SUNNY     70  52  52 N10       29.84R HAZE
ISLAND LAKE    CLOUDY    63  57  82 NW10G18   29.70R SMOKE
PILOT MOUND      N/A     68  59  73 N9          N/A
THE PAS        CLOUDY    57  45  62 NW20G29   29.89R
THOMPSON       LGT RAIN  43  41  93 N10G18    29.80R
WINNIPEG       CLOUDY    66  64  94 N8        29.80R SMOKE
LYNN LAKE      CLOUDY    46  43  87 N18G25    29.95R
CHURCHILL      LGT RAIN  41  41 100 NE26G36   29.74R FOG
GILLAM         DRIZZLE   48  43  81 NW20G26   29.67S
$$
                ***SASKATCHEWAN***

CITY           SKY/WX    TMP DP  RH WIND       PRES   REMARKS
ESTEVAN        PTSUNNY   73  55  53 NW18      29.93F SMOKE
KINDERSLEY     PTSUNNY   61  48  63 N10G17    30.08R
LLOYDMINSTER   CLOUDY    55  46  71 N16G24    30.11R
PRINCE ALBERT  LGT RAIN  54  50  87 NW8       30.01R SMOKE
REGINA         CLOUDY    70  50  49 NW21G29   29.99R
YORKTON        MOSUNNY   68  52  56 W20G28    29.91R
N. BATTLEFORD  LGT RAIN  59  50  72 NW15G22   30.08R
LA RONGE       NOT AVBL
SASKATOON      PTSUNNY   66  48  52 NW13G21   30.03S
SWIFT CURRENT  CLOUDY    63  46  55 NW13G22   30.07S
$$
NOTE: THESE ARE AUTOMATED STATIONS WITH LIMITED QUALITY CONTROL
      "FAIR" INDICATES FEW OR NO CLOUDS BELOW 12,000 FEET WITH NO
      SIGNIFICANT WEATHER AND/OR OBSTRUCTIONS TO VISIBILITY.
      SKY/WX - SKY CONDITION AND SIGNIFICANT WEATHER.
      TMP - AIR TEMPERATURE.    DP   - DEWPOINT TEMPERATURE.
      RH  - RELATIVE HUMIDITY.  PRES - PRESSURE.
      HX  - HEAT INDEX.         WCI  - WIND CHILL INDEX.
$



USA.gov is the U.S. government's official web portal to all federal, state and local government web resources and services.